Year,Month,Day,Hour,Minute,Value (Times are PST for insolation in W/m^2)
2020,06,11,00,00,0.00
2020,06,11,00,01,0.00
2020,06,11,00,02,0.00
2020,06,11,00,03,0.00
2020,06,11,00,04,0.00
2020,06,11,00,05,0.00
2020,06,11,00,06,0.00
2020,06,11,00,07,0.00
2020,06,11,00,08,0.00
2020,06,11,00,09,0.00
2020,06,11,00,10,0.00
2020,06,11,00,11,0.00
2020,06,11,00,12,0.00
2020,06,11,00,13,0.00
2020,06,11,00,14,0.00
2020,06,11,00,15,0.00
2020,06,11,00,16,0.00
2020,06,11,00,17,0.00
2020,06,11,00,18,0.00
2020,06,11,00,19,0.00
2020,06,11,00,20,0.00
2020,06,11,00,21,0.00
2020,06,11,00,22,0.00
2020,06,11,00,23,0.00
2020,06,11,00,24,0.00
2020,06,11,00,25,0.00
2020,06,11,00,26,0.00
2020,06,11,00,27,0.00
2020,06,11,00,28,0.00
2020,06,11,00,29,0.00
2020,06,11,00,30,0.00
2020,06,11,00,31,0.00
2020,06,11,00,32,0.00
2020,06,11,00,33,0.00
2020,06,11,00,34,0.00
2020,06,11,00,35,0.00
2020,06,11,00,36,0.00
2020,06,11,00,37,0.00
2020,06,11,00,38,0.00
2020,06,11,00,39,0.00
2020,06,11,00,40,0.00
2020,06,11,00,41,0.00
2020,06,11,00,42,0.00
2020,06,11,00,43,0.00
2020,06,11,00,44,0.00
2020,06,11,00,45,0.00
2020,06,11,00,46,0.00
2020,06,11,00,47,0.00
2020,06,11,00,48,0.00
2020,06,11,00,49,0.00
2020,06,11,00,50,0.00
2020,06,11,00,51,0.00
2020,06,11,00,52,0.00
2020,06,11,00,53,0.00
2020,06,11,00,54,0.00
2020,06,11,00,55,0.00
2020,06,11,00,56,0.00
2020,06,11,00,57,0.00
2020,06,11,00,58,0.00
2020,06,11,00,59,0.00
2020,06,11,01,00,0.00
2020,06,11,01,01,0.00
2020,06,11,01,02,0.00
2020,06,11,01,03,0.00
2020,06,11,01,04,0.00
2020,06,11,01,05,0.00
2020,06,11,01,06,0.00
2020,06,11,01,07,0.00
2020,06,11,01,08,0.00
2020,06,11,01,09,0.00
2020,06,11,01,10,0.00
2020,06,11,01,11,0.00
2020,06,11,01,12,0.00
2020,06,11,01,13,0.00
2020,06,11,01,14,0.00
2020,06,11,01,15,0.00
2020,06,11,01,16,0.00
2020,06,11,01,17,0.00
2020,06,11,01,18,0.00
2020,06,11,01,19,0.00
2020,06,11,01,20,0.00
2020,06,11,01,21,0.00
2020,06,11,01,22,0.00
2020,06,11,01,23,0.00
2020,06,11,01,24,0.00
2020,06,11,01,25,0.00
2020,06,11,01,26,0.00
2020,06,11,01,27,0.00
2020,06,11,01,28,0.00
2020,06,11,01,29,0.00
2020,06,11,01,30,0.00
2020,06,11,01,31,0.00
2020,06,11,01,32,0.00
2020,06,11,01,33,0.00
2020,06,11,01,34,0.00
2020,06,11,01,35,0.00
2020,06,11,01,36,0.00
2020,06,11,01,37,0.00
2020,06,11,01,38,0.00
2020,06,11,01,39,0.00
2020,06,11,01,40,0.00
2020,06,11,01,41,0.00
2020,06,11,01,42,0.00
2020,06,11,01,43,0.00
2020,06,11,01,44,0.00
2020,06,11,01,45,0.00
2020,06,11,01,46,0.00
2020,06,11,01,47,0.00
2020,06,11,01,48,0.00
2020,06,11,01,49,0.00
2020,06,11,01,50,0.00
2020,06,11,01,51,0.00
2020,06,11,01,52,0.00
2020,06,11,01,53,0.00
2020,06,11,01,54,0.00
2020,06,11,01,55,0.00
2020,06,11,01,56,0.00
2020,06,11,01,57,0.00
2020,06,11,01,58,0.00
2020,06,11,01,59,0.00
2020,06,11,02,00,0.00
2020,06,11,02,01,0.00
2020,06,11,02,02,0.00
2020,06,11,02,03,0.00
2020,06,11,02,04,0.00
2020,06,11,02,05,0.00
2020,06,11,02,06,0.00
2020,06,11,02,07,0.00
2020,06,11,02,08,0.00
2020,06,11,02,09,0.00
2020,06,11,02,10,0.00
2020,06,11,02,11,0.00
2020,06,11,02,12,0.00
2020,06,11,02,13,0.00
2020,06,11,02,14,0.00
2020,06,11,02,15,0.00
2020,06,11,02,16,0.00
2020,06,11,02,17,0.00
2020,06,11,02,18,0.00
2020,06,11,02,19,0.00
2020,06,11,02,20,0.00
2020,06,11,02,21,0.00
2020,06,11,02,22,0.00
2020,06,11,02,23,0.00
2020,06,11,02,24,0.00
2020,06,11,02,25,0.00
2020,06,11,02,26,0.00
2020,06,11,02,27,0.00
2020,06,11,02,28,0.00
2020,06,11,02,29,0.00
2020,06,11,02,30,0.00
2020,06,11,02,31,0.00
2020,06,11,02,32,0.00
2020,06,11,02,33,0.00
2020,06,11,02,34,0.00
2020,06,11,02,35,0.00
2020,06,11,02,36,0.00
2020,06,11,02,37,0.00
2020,06,11,02,38,0.00
2020,06,11,02,39,0.00
2020,06,11,02,40,0.00
2020,06,11,02,41,0.00
2020,06,11,02,42,0.00
2020,06,11,02,43,0.00
2020,06,11,02,44,0.00
2020,06,11,02,45,0.00
2020,06,11,02,46,0.00
2020,06,11,02,47,0.00
2020,06,11,02,48,0.00
2020,06,11,02,49,0.00
2020,06,11,02,50,0.00
2020,06,11,02,51,0.00
2020,06,11,02,52,0.00
2020,06,11,02,53,0.00
2020,06,11,02,54,0.00
2020,06,11,02,55,0.00
2020,06,11,02,56,0.00
2020,06,11,02,57,0.00
2020,06,11,02,58,0.00
2020,06,11,02,59,0.00
2020,06,11,03,00,0.00
2020,06,11,03,01,0.00
2020,06,11,03,02,0.00
2020,06,11,03,03,0.00
2020,06,11,03,04,0.00
2020,06,11,03,05,0.00
2020,06,11,03,06,0.00
2020,06,11,03,07,0.00
2020,06,11,03,08,0.00
2020,06,11,03,09,0.00
2020,06,11,03,10,0.00
2020,06,11,03,11,0.00
2020,06,11,03,12,0.00
2020,06,11,03,13,0.00
2020,06,11,03,14,0.00
2020,06,11,03,15,0.00
2020,06,11,03,16,0.00
2020,06,11,03,17,0.00
2020,06,11,03,18,0.00
2020,06,11,03,19,0.00
2020,06,11,03,20,0.00
2020,06,11,03,21,0.00
2020,06,11,03,22,0.00
2020,06,11,03,23,0.00
2020,06,11,03,24,0.00
2020,06,11,03,25,0.00
2020,06,11,03,26,0.00
2020,06,11,03,27,0.00
2020,06,11,03,28,0.00
2020,06,11,03,29,0.00
2020,06,11,03,30,0.00
2020,06,11,03,31,0.00
2020,06,11,03,32,0.00
2020,06,11,03,33,0.00
2020,06,11,03,34,0.00
2020,06,11,03,35,0.00
2020,06,11,03,36,0.00
2020,06,11,03,37,0.00
2020,06,11,03,38,0.00
2020,06,11,03,39,0.00
2020,06,11,03,40,0.00
2020,06,11,03,41,0.00
2020,06,11,03,42,0.00
2020,06,11,03,43,0.00
2020,06,11,03,44,0.00
2020,06,11,03,45,0.00
2020,06,11,03,46,0.00
2020,06,11,03,47,0.00
2020,06,11,03,48,0.00
2020,06,11,03,49,0.00
2020,06,11,03,50,0.00
2020,06,11,03,51,0.00
2020,06,11,03,52,0.00
2020,06,11,03,53,0.00
2020,06,11,03,54,0.00
2020,06,11,03,55,0.00
2020,06,11,03,56,0.00
2020,06,11,03,57,0.00
2020,06,11,03,58,0.00
2020,06,11,03,59,0.00
2020,06,11,04,00,0.00
2020,06,11,04,01,0.00
2020,06,11,04,02,0.00
2020,06,11,04,03,0.00
2020,06,11,04,04,0.00
2020,06,11,04,05,0.00
2020,06,11,04,06,0.00
2020,06,11,04,07,0.00
2020,06,11,04,08,0.00
2020,06,11,04,09,0.00
2020,06,11,04,10,0.00
2020,06,11,04,11,0.00
2020,06,11,04,12,0.00
2020,06,11,04,13,0.00
2020,06,11,04,14,0.00
2020,06,11,04,15,0.00
2020,06,11,04,16,0.00
2020,06,11,04,17,0.00
2020,06,11,04,18,0.00
2020,06,11,04,19,0.00
2020,06,11,04,20,0.00
2020,06,11,04,21,0.00
2020,06,11,04,22,0.00
2020,06,11,04,23,0.00
2020,06,11,04,24,0.00
2020,06,11,04,25,0.00
2020,06,11,04,26,0.00
2020,06,11,04,27,0.00
2020,06,11,04,28,0.00
2020,06,11,04,29,0.00
2020,06,11,04,30,0.00
2020,06,11,04,31,0.00
2020,06,11,04,32,0.00
2020,06,11,04,33,0.00
2020,06,11,04,34,0.00
2020,06,11,04,35,0.00
2020,06,11,04,36,0.00
2020,06,11,04,37,0.00
2020,06,11,04,38,0.00
2020,06,11,04,39,0.00
2020,06,11,04,40,0.00
2020,06,11,04,41,0.00
2020,06,11,04,42,0.00
2020,06,11,04,43,0.00
2020,06,11,04,44,0.00
2020,06,11,04,45,0.00
2020,06,11,04,46,0.00
2020,06,11,04,47,0.00
2020,06,11,04,48,0.00
2020,06,11,04,49,0.00
2020,06,11,04,50,0.00
2020,06,11,04,51,0.00
2020,06,11,04,52,0.00
2020,06,11,04,53,0.00
2020,06,11,04,54,0.00
2020,06,11,04,55,0.00
2020,06,11,04,56,0.00
2020,06,11,04,57,0.00
2020,06,11,04,58,0.00
2020,06,11,04,59,0.00
2020,06,11,05,00,0.00
2020,06,11,05,01,0.00
2020,06,11,05,02,0.00
2020,06,11,05,03,0.00
2020,06,11,05,04,0.00
2020,06,11,05,05,0.00
2020,06,11,05,06,0.00
2020,06,11,05,07,0.00
2020,06,11,05,08,0.00
2020,06,11,05,09,0.00
2020,06,11,05,10,0.00
2020,06,11,05,11,0.00
2020,06,11,05,12,0.00
2020,06,11,05,13,0.00
2020,06,11,05,14,0.00
2020,06,11,05,15,0.00
2020,06,11,05,16,0.00
2020,06,11,05,17,0.00
2020,06,11,05,18,0.00
2020,06,11,05,19,0.00
2020,06,11,05,20,4.10
2020,06,11,05,21,5.00
2020,06,11,05,22,5.00
2020,06,11,05,23,5.40
2020,06,11,05,24,7.00
2020,06,11,05,25,7.00
2020,06,11,05,26,7.00
2020,06,11,05,27,8.30
2020,06,11,05,28,9.00
2020,06,11,05,29,9.00
2020,06,11,05,30,10.90
2020,06,11,05,31,11.00
2020,06,11,05,32,11.00
2020,06,11,05,33,11.30
2020,06,11,05,34,12.00
2020,06,11,05,35,12.00
2020,06,11,05,36,13.30
2020,06,11,05,37,14.00
2020,06,11,05,38,14.00
2020,06,11,05,39,16.00
2020,06,11,05,40,16.00
2020,06,11,05,41,16.60
2020,06,11,05,42,18.00
2020,06,11,05,43,18.50
2020,06,11,05,44,19.00
2020,06,11,05,45,20.40
2020,06,11,05,46,21.00
2020,06,11,05,47,21.10
2020,06,11,05,48,23.00
2020,06,11,05,49,23.00
2020,06,11,05,50,23.70
2020,06,11,05,51,25.00
2020,06,11,05,52,25.00
2020,06,11,05,53,25.00
2020,06,11,05,54,25.70
2020,06,11,05,55,26.00
2020,06,11,05,56,26.00
2020,06,11,05,57,26.00
2020,06,11,05,58,26.00
2020,06,11,05,59,26.00
2020,06,11,06,00,27.00
2020,06,11,06,01,28.00
2020,06,11,06,02,29.40
2020,06,11,06,03,30.00
2020,06,11,06,04,31.80
2020,06,11,06,05,32.00
2020,06,11,06,06,31.60
2020,06,11,06,07,30.00
2020,06,11,06,08,30.00
2020,06,11,06,09,30.00
2020,06,11,06,10,30.00
2020,06,11,06,11,31.50
2020,06,11,06,12,32.00
2020,06,11,06,13,32.00
2020,06,11,06,14,32.00
2020,06,11,06,15,32.30
2020,06,11,06,16,33.00
2020,06,11,06,17,33.00
2020,06,11,06,18,34.10
2020,06,11,06,19,35.00
2020,06,11,06,20,33.40
2020,06,11,06,21,33.00
2020,06,11,06,22,32.00
2020,06,11,06,23,31.60
2020,06,11,06,24,30.00
2020,06,11,06,25,30.00
2020,06,11,06,26,30.00
2020,06,11,06,27,28.70
2020,06,11,06,28,28.00
2020,06,11,06,29,28.00
2020,06,11,06,30,28.00
2020,06,11,06,31,28.20
2020,06,11,06,32,30.70
2020,06,11,06,33,33.70
2020,06,11,06,34,36.70
2020,06,11,06,35,40.70
2020,06,11,06,36,43.30
2020,06,11,06,37,46.30
2020,06,11,06,38,50.60
2020,06,11,06,39,54.20
2020,06,11,06,40,58.40
2020,06,11,06,41,60.60
2020,06,11,06,42,62.00
2020,06,11,06,43,62.50
2020,06,11,06,44,63.00
2020,06,11,06,45,64.40
2020,06,11,06,46,66.60
2020,06,11,06,47,68.80
2020,06,11,06,48,70.40
2020,06,11,06,49,74.40
2020,06,11,06,50,77.00
2020,06,11,06,51,80.80
2020,06,11,06,52,84.70
2020,06,11,06,53,87.30
2020,06,11,06,54,89.50
2020,06,11,06,55,90.00
2020,06,11,06,56,94.90
2020,06,11,06,57,98.40
2020,06,11,06,58,102.80
2020,06,11,06,59,105.00
2020,06,11,07,00,105.90
2020,06,11,07,01,109.20
2020,06,11,07,02,113.00
2020,06,11,07,03,115.50
2020,06,11,07,04,117.70
2020,06,11,07,05,120.00
2020,06,11,07,06,120.20
2020,06,11,07,07,120.70
2020,06,11,07,08,118.40
2020,06,11,07,09,113.60
2020,06,11,07,10,107.20
2020,06,11,07,11,101.50
2020,06,11,07,12,95.90
2020,06,11,07,13,91.30
2020,06,11,07,14,91.20
2020,06,11,07,15,93.40
2020,06,11,07,16,95.70
2020,06,11,07,17,97.40
2020,06,11,07,18,98.00
2020,06,11,07,19,98.00
2020,06,11,07,20,98.00
2020,06,11,07,21,97.10
2020,06,11,07,22,94.90
2020,06,11,07,23,93.00
2020,06,11,07,24,93.50
2020,06,11,07,25,95.00
2020,06,11,07,26,96.00
2020,06,11,07,27,97.00
2020,06,11,07,28,97.70
2020,06,11,07,29,99.60
2020,06,11,07,30,103.60
2020,06,11,07,31,105.40
2020,06,11,07,32,109.00
2020,06,11,07,33,109.60
2020,06,11,07,34,110.20
2020,06,11,07,35,108.00
2020,06,11,07,36,107.00
2020,06,11,07,37,108.40
2020,06,11,07,38,112.30
2020,06,11,07,39,115.90
2020,06,11,07,40,120.00
2020,06,11,07,41,121.30
2020,06,11,07,42,125.70
2020,06,11,07,43,128.40
2020,06,11,07,44,132.20
2020,06,11,07,45,136.00
2020,06,11,07,46,138.60
2020,06,11,07,47,140.80
2020,06,11,07,48,141.90
2020,06,11,07,49,141.00
2020,06,11,07,50,140.40
2020,06,11,07,51,138.20
2020,06,11,07,52,136.00
2020,06,11,07,53,135.00
2020,06,11,07,54,135.00
2020,06,11,07,55,136.60
2020,06,11,07,56,137.00
2020,06,11,07,57,139.00
2020,06,11,07,58,139.40
2020,06,11,07,59,141.30
2020,06,11,08,00,142.80
2020,06,11,08,01,145.00
2020,06,11,08,02,147.90
2020,06,11,08,03,152.10
2020,06,11,08,04,157.30
2020,06,11,08,05,163.40
2020,06,11,08,06,172.30
2020,06,11,08,07,179.80
2020,06,11,08,08,187.90
2020,06,11,08,09,193.40
2020,06,11,08,10,195.00
2020,06,11,08,11,196.40
2020,06,11,08,12,197.00
2020,06,11,08,13,195.20
2020,06,11,08,14,192.70
2020,06,11,08,15,189.10
2020,06,11,08,16,185.00
2020,06,11,08,17,181.00
2020,06,11,08,18,174.40
2020,06,11,08,19,166.00
2020,06,11,08,20,157.80
2020,06,11,08,21,151.80
2020,06,11,08,22,146.30
2020,06,11,08,23,143.60
2020,06,11,08,24,141.00
2020,06,11,08,25,141.00
2020,06,11,08,26,141.00
2020,06,11,08,27,143.80
2020,06,11,08,28,148.00
2020,06,11,08,29,150.60
2020,06,11,08,30,152.80
2020,06,11,08,31,153.00
2020,06,11,08,32,153.00
2020,06,11,08,33,153.00
2020,06,11,08,34,153.00
2020,06,11,08,35,153.00
2020,06,11,08,36,153.00
2020,06,11,08,37,154.40
2020,06,11,08,38,155.00
2020,06,11,08,39,155.00
2020,06,11,08,40,155.10
2020,06,11,08,41,156.40
2020,06,11,08,42,158.70
2020,06,11,08,43,160.90
2020,06,11,08,44,162.60
2020,06,11,08,45,165.70
2020,06,11,08,46,170.00
2020,06,11,08,47,175.30
2020,06,11,08,48,181.30
2020,06,11,08,49,189.30
2020,06,11,08,50,196.80
2020,06,11,08,51,203.90
2020,06,11,08,52,210.40
2020,06,11,08,53,216.40
2020,06,11,08,54,221.50
2020,06,11,08,55,227.90
2020,06,11,08,56,233.40
2020,06,11,08,57,237.80
2020,06,11,08,58,245.30
2020,06,11,08,59,252.30
2020,06,11,09,00,259.00
2020,06,11,09,01,265.60
2020,06,11,09,02,274.70
2020,06,11,09,03,283.20
2020,06,11,09,04,287.60
2020,06,11,09,05,296.50
2020,06,11,09,06,303.90
2020,06,11,09,07,317.60
2020,06,11,09,08,322.40
2020,06,11,09,09,315.70
2020,06,11,09,10,314.10
2020,06,11,09,11,315.70
2020,06,11,09,12,316.00
2020,06,11,09,13,316.00
2020,06,11,09,14,311.40
2020,06,11,09,15,315.20
2020,06,11,09,16,317.80
2020,06,11,09,17,321.20
2020,06,11,09,18,317.90
2020,06,11,09,19,316.00
2020,06,11,09,20,316.00
2020,06,11,09,21,316.00
2020,06,11,09,22,317.90
2020,06,11,09,23,321.60
2020,06,11,09,24,317.60
2020,06,11,09,25,316.70
2020,06,11,09,26,315.80
2020,06,11,09,27,308.30
2020,06,11,09,28,298.30
2020,06,11,09,29,291.30
2020,06,11,09,30,287.40
2020,06,11,09,31,283.10
2020,06,11,09,32,282.10
2020,06,11,09,33,288.50
2020,06,11,09,34,293.20
2020,06,11,09,35,296.90
2020,06,11,09,36,300.70
2020,06,11,09,37,301.30
2020,06,11,09,38,297.90
2020,06,11,09,39,298.80
2020,06,11,09,40,299.00
2020,06,11,09,41,299.60
2020,06,11,09,42,305.30
2020,06,11,09,43,326.40
2020,06,11,09,44,347.00
2020,06,11,09,45,334.80
2020,06,11,09,46,335.40
2020,06,11,09,47,359.50
2020,06,11,09,48,382.50
2020,06,11,09,49,387.60
2020,06,11,09,50,384.50
2020,06,11,09,51,383.00
2020,06,11,09,52,381.70
2020,06,11,09,53,382.80
2020,06,11,09,54,388.30
2020,06,11,09,55,384.80
2020,06,11,09,56,398.40
2020,06,11,09,57,408.00
2020,06,11,09,58,407.30
2020,06,11,09,59,406.10
2020,06,11,10,00,426.90
2020,06,11,10,01,457.30
2020,06,11,10,02,471.60
2020,06,11,10,03,470.40
2020,06,11,10,04,481.90
2020,06,11,10,05,470.20
2020,06,11,10,06,466.10
2020,06,11,10,07,442.60
2020,06,11,10,08,442.70
2020,06,11,10,09,448.70
2020,06,11,10,10,457.60
2020,06,11,10,11,468.00
2020,06,11,10,12,481.40
2020,06,11,10,13,482.40
2020,06,11,10,14,473.60
2020,06,11,10,15,474.10
2020,06,11,10,16,467.30
2020,06,11,10,17,471.70
2020,06,11,10,18,475.40
2020,06,11,10,19,476.80
2020,06,11,10,20,480.20
2020,06,11,10,21,486.10
2020,06,11,10,22,491.40
2020,06,11,10,23,495.80
2020,06,11,10,24,539.90
2020,06,11,10,25,524.80
2020,06,11,10,26,523.60
2020,06,11,10,27,533.30
2020,06,11,10,28,517.30
2020,06,11,10,29,497.00
2020,06,11,10,30,512.70
2020,06,11,10,31,507.30
2020,06,11,10,32,584.30
2020,06,11,10,33,541.80
2020,06,11,10,34,544.00
2020,06,11,10,35,541.10
2020,06,11,10,36,524.40
2020,06,11,10,37,518.70
2020,06,11,10,38,540.30
2020,06,11,10,39,540.70
2020,06,11,10,40,536.40
2020,06,11,10,41,570.40
2020,06,11,10,42,555.30
2020,06,11,10,43,568.00
2020,06,11,10,44,587.20
2020,06,11,10,45,631.40
2020,06,11,10,46,617.40
2020,06,11,10,47,560.20
2020,06,11,10,48,541.10
2020,06,11,10,49,534.60
2020,06,11,10,50,584.00
2020,06,11,10,51,584.00
2020,06,11,10,52,568.00
2020,06,11,10,53,559.10
2020,06,11,10,54,568.00
2020,06,11,10,55,537.70
2020,06,11,10,56,520.50
2020,06,11,10,57,532.90
2020,06,11,10,58,565.60
2020,06,11,10,59,577.10
2020,06,11,11,00,567.10
2020,06,11,11,01,571.20
2020,06,11,11,02,568.70
2020,06,11,11,03,573.00
2020,06,11,11,04,594.30
2020,06,11,11,05,578.60
2020,06,11,11,06,573.00
2020,06,11,11,07,573.00
2020,06,11,11,08,574.70
2020,06,11,11,09,593.10
2020,06,11,11,10,601.10
2020,06,11,11,11,570.90
2020,06,11,11,12,553.80
2020,06,11,11,13,583.50
2020,06,11,11,14,583.70
2020,06,11,11,15,608.80
2020,06,11,11,16,568.40
2020,06,11,11,17,617.30
2020,06,11,11,18,635.80
2020,06,11,11,19,612.40
2020,06,11,11,20,568.00
2020,06,11,11,21,610.00
2020,06,11,11,22,613.10
2020,06,11,11,23,606.70
2020,06,11,11,24,607.80
2020,06,11,11,25,658.20
2020,06,11,11,26,675.10
2020,06,11,11,27,632.20
2020,06,11,11,28,573.80
2020,06,11,11,29,559.00
2020,06,11,11,30,555.00
2020,06,11,11,31,523.80
2020,06,11,11,32,597.80
2020,06,11,11,33,653.10
2020,06,11,11,34,633.70
2020,06,11,11,35,573.70
2020,06,11,11,36,557.00
2020,06,11,11,37,557.00
2020,06,11,11,38,557.00
2020,06,11,11,39,695.00
2020,06,11,11,40,797.00
2020,06,11,11,41,800.00
2020,06,11,11,42,800.00
2020,06,11,11,43,764.10
2020,06,11,11,44,720.80
2020,06,11,11,45,740.00
2020,06,11,11,46,658.40
2020,06,11,11,47,624.00
2020,06,11,11,48,624.00
2020,06,11,11,49,661.00
2020,06,11,11,50,697.20
2020,06,11,11,51,824.00
2020,06,11,11,52,824.00
2020,06,11,11,53,824.00
2020,06,11,11,54,824.00
2020,06,11,11,55,824.00
2020,06,11,11,56,824.00
2020,06,11,11,57,648.70
2020,06,11,11,58,654.10
2020,06,11,11,59,739.00
2020,06,11,12,00,782.00
2020,06,11,12,01,736.30
2020,06,11,12,02,645.50
2020,06,11,12,03,684.80
2020,06,11,12,04,720.40
2020,06,11,12,05,722.00
2020,06,11,12,06,716.40
2020,06,11,12,07,642.40
2020,06,11,12,08,623.20
2020,06,11,12,09,633.80
2020,06,11,12,10,630.10
2020,06,11,12,11,615.00
2020,06,11,12,12,629.70
2020,06,11,12,13,635.00
2020,06,11,12,14,635.00
2020,06,11,12,15,635.60
2020,06,11,12,16,644.20
2020,06,11,12,17,659.00
2020,06,11,12,18,653.70
2020,06,11,12,19,679.70
2020,06,11,12,20,720.10
2020,06,11,12,21,686.70
2020,06,11,12,22,680.70
2020,06,11,12,23,612.70
2020,06,11,12,24,610.00
2020,06,11,12,25,629.20
2020,06,11,12,26,718.40
2020,06,11,12,27,741.40
2020,06,11,12,28,731.40
2020,06,11,12,29,751.00
2020,06,11,12,30,732.30
2020,06,11,12,31,743.10
2020,06,11,12,32,762.70
2020,06,11,12,33,816.00
2020,06,11,12,34,816.00
2020,06,11,12,35,816.00
2020,06,11,12,36,816.00
2020,06,11,12,37,908.60
2020,06,11,12,38,963.00
2020,06,11,12,39,998.80
2020,06,11,12,40,979.10
2020,06,11,12,41,645.50
2020,06,11,12,42,579.30
2020,06,11,12,43,557.40
2020,06,11,12,44,567.70
2020,06,11,12,45,600.30
2020,06,11,12,46,608.00
2020,06,11,12,47,580.60
2020,06,11,12,48,572.70
2020,06,11,12,49,540.90
2020,06,11,12,50,541.00
2020,06,11,12,51,584.60
2020,06,11,12,52,646.20
2020,06,11,12,53,651.10
2020,06,11,12,54,642.00
2020,06,11,12,55,518.30
2020,06,11,12,56,464.40
2020,06,11,12,57,468.50
2020,06,11,12,58,508.90
2020,06,11,12,59,551.30
2020,06,11,13,00,563.00
2020,06,11,13,01,563.00
2020,06,11,13,02,563.00
2020,06,11,13,03,655.00
2020,06,11,13,04,701.00
2020,06,11,13,05,873.90
2020,06,11,13,06,904.00
2020,06,11,13,07,904.00
2020,06,11,13,08,904.00
2020,06,11,13,09,762.50
2020,06,11,13,10,536.00
2020,06,11,13,11,536.00
2020,06,11,13,12,675.30
2020,06,11,13,13,721.70
2020,06,11,13,14,690.10
2020,06,11,13,15,755.10
2020,06,11,13,16,789.10
2020,06,11,13,17,774.70
2020,06,11,13,18,753.90
2020,06,11,13,19,808.10
2020,06,11,13,20,837.00
2020,06,11,13,21,662.20
2020,06,11,13,22,601.00
2020,06,11,13,23,516.80
2020,06,11,13,24,443.70
2020,06,11,13,25,417.80
2020,06,11,13,26,406.30
2020,06,11,13,27,394.10
2020,06,11,13,28,386.30
2020,06,11,13,29,389.70
2020,06,11,13,30,397.40
2020,06,11,13,31,397.20
2020,06,11,13,32,397.10
2020,06,11,13,33,398.40
2020,06,11,13,34,396.00
2020,06,11,13,35,381.30
2020,06,11,13,36,350.10
2020,06,11,13,37,335.30
2020,06,11,13,38,329.80
2020,06,11,13,39,325.60
2020,06,11,13,40,325.00
2020,06,11,13,41,323.00
2020,06,11,13,42,323.00
2020,06,11,13,43,325.30
2020,06,11,13,44,326.40
2020,06,11,13,45,324.80
2020,06,11,13,46,331.70
2020,06,11,13,47,334.00
2020,06,11,13,48,332.30
2020,06,11,13,49,324.70
2020,06,11,13,50,319.70
2020,06,11,13,51,326.70
2020,06,11,13,52,320.00
2020,06,11,13,53,320.00
2020,06,11,13,54,321.20
2020,06,11,13,55,322.00
2020,06,11,13,56,320.40
2020,06,11,13,57,318.20
2020,06,11,13,58,315.00
2020,06,11,13,59,315.20
2020,06,11,14,00,314.50
2020,06,11,14,01,307.00
2020,06,11,14,02,297.60
2020,06,11,14,03,287.10
2020,06,11,14,04,275.00
2020,06,11,14,05,266.30
2020,06,11,14,06,258.30
2020,06,11,14,07,252.60
2020,06,11,14,08,249.00
2020,06,11,14,09,245.30
2020,06,11,14,10,243.60
2020,06,11,14,11,244.70
2020,06,11,14,12,250.70
2020,06,11,14,13,261.60
2020,06,11,14,14,276.40
2020,06,11,14,15,295.70
2020,06,11,14,16,317.60
2020,06,11,14,17,349.90
2020,06,11,14,18,378.00
2020,06,11,14,19,481.70
2020,06,11,14,20,578.00
2020,06,11,14,21,578.00
2020,06,11,14,22,578.00
2020,06,11,14,23,582.30
2020,06,11,14,24,696.80
2020,06,11,14,25,723.20
2020,06,11,14,26,706.30
2020,06,11,14,27,643.00
2020,06,11,14,28,614.70
2020,06,11,14,29,599.30
2020,06,11,14,30,603.00
2020,06,11,14,31,603.00
2020,06,11,14,32,629.80
2020,06,11,14,33,965.00
2020,06,11,14,34,965.00
2020,06,11,14,35,933.10
2020,06,11,14,36,880.60
2020,06,11,14,37,879.00
2020,06,11,14,38,879.00
2020,06,11,14,39,879.00
2020,06,11,14,40,879.00
2020,06,11,14,41,817.00
2020,06,11,14,42,733.00
2020,06,11,14,43,439.00
2020,06,11,14,44,439.00
2020,06,11,14,45,439.00
2020,06,11,14,46,439.00
2020,06,11,14,47,869.70
2020,06,11,14,48,1018.40
2020,06,11,14,49,985.90
2020,06,11,14,50,980.40
2020,06,11,14,51,977.00
2020,06,11,14,52,977.00
2020,06,11,14,53,977.00
2020,06,11,14,54,977.00
2020,06,11,14,55,1045.30
2020,06,11,14,56,1053.80
2020,06,11,14,57,1063.10
2020,06,11,14,58,1105.90
2020,06,11,14,59,1137.00
2020,06,11,15,00,1137.00
2020,06,11,15,01,1137.00
2020,06,11,15,02,896.40
2020,06,11,15,03,673.00
2020,06,11,15,04,673.00
2020,06,11,15,05,528.80
2020,06,11,15,06,524.40
2020,06,11,15,07,467.10
2020,06,11,15,08,445.00
2020,06,11,15,09,435.70
2020,06,11,15,10,418.30
2020,06,11,15,11,406.50
2020,06,11,15,12,382.70
2020,06,11,15,13,363.40
2020,06,11,15,14,347.90
2020,06,11,15,15,344.40
2020,06,11,15,16,338.60
2020,06,11,15,17,350.00
2020,06,11,15,18,358.50
2020,06,11,15,19,372.00
2020,06,11,15,20,390.00
2020,06,11,15,21,392.40
2020,06,11,15,22,379.90
2020,06,11,15,23,376.20
2020,06,11,15,24,367.20
2020,06,11,15,25,349.20
2020,06,11,15,26,329.00
2020,06,11,15,27,308.80
2020,06,11,15,28,297.20
2020,06,11,15,29,294.60
2020,06,11,15,30,296.50
2020,06,11,15,31,298.70
2020,06,11,15,32,301.20
2020,06,11,15,33,312.60
2020,06,11,15,34,323.30
2020,06,11,15,35,327.00
2020,06,11,15,36,326.00
2020,06,11,15,37,320.00
2020,06,11,15,38,309.30
2020,06,11,15,39,297.50
2020,06,11,15,40,290.70
2020,06,11,15,41,285.80
2020,06,11,15,42,265.50
2020,06,11,15,43,246.70
2020,06,11,15,44,237.80
2020,06,11,15,45,233.90
2020,06,11,15,46,234.50
2020,06,11,15,47,236.00
2020,06,11,15,48,258.80
2020,06,11,15,49,280.40
2020,06,11,15,50,302.00
2020,06,11,15,51,327.40
2020,06,11,15,52,328.30
2020,06,11,15,53,335.70
2020,06,11,15,54,364.00
2020,06,11,15,55,364.00
2020,06,11,15,56,563.30
2020,06,11,15,57,573.40
2020,06,11,15,58,516.30
2020,06,11,15,59,448.90
2020,06,11,16,00,439.00
2020,06,11,16,01,435.30
2020,06,11,16,02,385.20
2020,06,11,16,03,380.00
2020,06,11,16,04,335.00
2020,06,11,16,05,319.30
2020,06,11,16,06,330.70
2020,06,11,16,07,357.30
2020,06,11,16,08,375.30
2020,06,11,16,09,370.80
2020,06,11,16,10,367.20
2020,06,11,16,11,375.20
2020,06,11,16,12,393.60
2020,06,11,16,13,401.00
2020,06,11,16,14,408.30
2020,06,11,16,15,411.00
2020,06,11,16,16,433.20
2020,06,11,16,17,407.70
2020,06,11,16,18,406.60
2020,06,11,16,19,450.00
2020,06,11,16,20,391.90
2020,06,11,16,21,349.30
2020,06,11,16,22,348.00
2020,06,11,16,23,348.00
2020,06,11,16,24,417.40
2020,06,11,16,25,420.00
2020,06,11,16,26,417.90
2020,06,11,16,27,409.70
2020,06,11,16,28,403.50
2020,06,11,16,29,403.00
2020,06,11,16,30,484.60
2020,06,11,16,31,519.00
2020,06,11,16,32,370.90
2020,06,11,16,33,360.00
2020,06,11,16,34,412.10
2020,06,11,16,35,561.00
2020,06,11,16,36,663.20
2020,06,11,16,37,803.40
2020,06,11,16,38,832.90
2020,06,11,16,39,828.40
2020,06,11,16,40,829.00
2020,06,11,16,41,824.50
2020,06,11,16,42,829.90
2020,06,11,16,43,839.60
2020,06,11,16,44,844.70
2020,06,11,16,45,842.10
2020,06,11,16,46,830.90
2020,06,11,16,47,821.10
2020,06,11,16,48,813.30
2020,06,11,16,49,812.00
2020,06,11,16,50,804.80
2020,06,11,16,51,803.00
2020,06,11,16,52,805.10
2020,06,11,16,53,813.70
2020,06,11,16,54,832.00
2020,06,11,16,55,844.00
2020,06,11,16,56,449.20
2020,06,11,16,57,311.00
2020,06,11,16,58,311.00
2020,06,11,16,59,311.00
2020,06,11,17,00,311.00
2020,06,11,17,01,499.00
2020,06,11,17,02,860.30
2020,06,11,17,03,866.40
2020,06,11,17,04,886.00
2020,06,11,17,05,537.60
2020,06,11,17,06,438.00
2020,06,11,17,07,688.40